STARLINK-34716

Last updated on Tue Sep 16 2025 00:02:07 GMT+0000 (Coordinated Universal Time)

1 65352U 25190B 25258.05625891 -.00644699 00000+0 -72856-2 0 9995 2 65352 53.1585 267.6260 0002281 132.7617 227.3590 15.63853665 2816
UTC large
Height (km)
Speed (km/s)
/
Latitude / Longitude
Inclination (degrees)
Orbital Period (minutes)
Azimuth
Elevation
Range (km)
Doppler Factor

Next 0 passes for location: London (51.5072 / 0.1276)

Sorry there are no passes over London.